Indian Springs, NV

9:01 PM PDT on March 26, 2017 (GMT -0700)
Indian Springs Air Force Auxiliary

Weather History for KINS - February, 2013

Change the Weather History Date:

Monday, February 18, 2013

  Actual Average (KDRA) Record (KDRA)
Temperature  
Mean Temperature 44 °F -  
Max Temperature 58 °F 55 °F 77 °F (1981)
Min Temperature 31 °F 36 °F 29 °F (2009)
Degree Days  
Heating Degree Days 20    
Moisture  
Dew Point 14 °F    
Average Humidity 31    
Maximum Humidity 50    
Minimum Humidity 17    
Precipitation  
Precipitation 0.00 in - - ()
Sea Level Pressure  
Sea Level Pressure 29.96 in    
Wind  
Wind Speed 6 mph (SE)    
Max Wind Speed 17 mph    
Max Gust Speed 23 mph    
Visibility 10 miles    
Events      
Averages and records for this station are not official NWS values.
T = Trace of Precipitation, MM = Missing Value Source: NWS Daily Summary

Daily Weather History Graph

Daily Weather History Graph

Search for Another Location

Airport or City:

Trip Planner

Search our weather history database for the weather conditions in past years. The results will help you decide how hot, cold, wet, or windy it might be!

Date:

Astronomy

Feb. 18, 2013 Rise Set
Actual Time 6:26 AM PST 5:26 PM PST
Civil Twilight 6:00 AM PST 5:53 PM PST
Nautical Twilight 5:30 AM PST 6:23 PM PST
Astronomical Twilight 5:00 AM PST 6:53 PM PST
Moon 11:20 AM PST (2/18) 1:06 AM PST (2/18)
Length of Visible Light 11h 52m
Length of Day
10h 59m
First Quarter, 59% of the Moon is Illuminated
Feb 18
First Quarter
Feb 25
Full
Mar 4
Last Quarter
Mar 11
New
Mar 19
First Quarter

Hourly Weather History & Observations

Time (PST) Temp. Windchill Dew Point Humidity Pressure Visibility Wind Dir Wind Speed Gust Speed Precip Events Conditions
12:58 AM 40.1 °F 36.9 °F 13.6 °F 34% 30.00 in 10.0 mi WNW 4.6 mph - N/A   Clear
1:58 AM 39.9 °F - 15.3 °F 37% 30.01 in 10.0 mi SE 2.3 mph - N/A   Clear
2:58 AM 32.9 °F 25.9 °F 12.6 °F 43% 30.02 in 10.0 mi WSW 8.1 mph - N/A   Clear
3:58 AM 32.9 °F - 13.5 °F 45% 30.02 in 10.0 mi ENE 1.2 mph - N/A   Clear
4:58 AM 34.7 °F - 16.3 °F 47% 30.02 in 10.0 mi West 2.3 mph - N/A   Clear
5:58 AM 34.2 °F - 17.1 °F 50% 30.04 in 10.0 mi Calm Calm - N/A   Clear
6:58 AM 31.5 °F - 14.2 °F 49% 30.06 in 10.0 mi Variable 2.3 mph - N/A   Clear
7:58 AM 40.1 °F 34.1 °F 15.3 °F 36% 30.08 in 10.0 mi East 9.2 mph - N/A   Clear
8:58 AM 46.0 °F 44.8 °F 12.4 °F 26% 30.08 in 10.0 mi North 3.5 mph - N/A   Clear
9:58 AM 48.4 °F - 14.0 °F 25% 30.08 in 10.0 mi Variable 2.3 mph - N/A   Clear
10:58 AM 51.3 °F - 14.9 °F 24% 30.06 in 10.0 mi East 9.2 mph - N/A   Clear
11:58 AM 54.0 °F - 15.1 °F 22% 30.02 in 10.0 mi East 9.2 mph 19.6 mph N/A   Clear
12:58 PM 56.1 °F - 13.6 °F 19% 29.97 in 10.0 mi East 15.0 mph - N/A   Clear
1:58 PM 57.6 °F - 14.5 °F 18% 29.94 in 10.0 mi East 15.0 mph 20.7 mph N/A   Clear
2:58 PM 58.3 °F - 13.8 °F 17% 29.92 in 10.0 mi East 17.3 mph 23.0 mph N/A   Clear
3:58 PM 57.6 °F - 13.3 °F 17% 29.89 in 10.0 mi East 16.1 mph - N/A   Clear
4:58 PM 55.4 °F - 14.0 °F 20% 29.88 in 10.0 mi East 16.1 mph - N/A   Clear
5:58 PM 51.3 °F - 14.7 °F 23% 29.87 in 10.0 mi East 9.2 mph - N/A   Clear
6:58 PM 47.8 °F - 15.6 °F 28% 29.87 in 10.0 mi SW 4.6 mph - N/A   Clear
7:58 PM 47.8 °F - 14.4 °F 26% 29.87 in 10.0 mi West 5.8 mph - N/A   Clear
8:58 PM 44.2 °F - 14.5 °F 30% 29.87 in 10.0 mi West 1.2 mph - N/A   Clear
9:58 PM 41.5 °F 39.6 °F 14.9 °F 34% 29.87 in 10.0 mi South 3.5 mph - N/A   Clear
10:58 PM 40.8 °F - 15.3 °F 35% 29.85 in 10.0 mi WSW 2.3 mph - N/A   Clear
11:58 PM 40.3 °F 37.1 °F 14.9 °F 36% 29.84 in 10.0 mi West 4.6 mph - N/A   Clear